TimeEDT,TemperatureF,Dew PointF,Humidity,Sea Level PressureIn,VisibilityMPH,Wind Direction,Wind SpeedMPH,Gust SpeedMPH,PrecipitationIn,Events,Conditions,WindDirDegrees,DateUTC
12:53 AM,61.0,57.0,87,29.94,6.0,Calm,Calm,-,N/A,,Clear,0,2012-10-06 04:53:00
1:53 AM,61.0,57.0,87,29.92,6.0,Calm,Calm,-,N/A,,Clear,0,2012-10-06 05:53:00
2:53 AM,59.0,55.9,90,29.91,5.0,Calm,Calm,-,N/A,,Clear,0,2012-10-06 06:53:00
3:53 AM,57.9,55.0,90,29.90,4.0,Calm,Calm,-,N/A,,Clear,0,2012-10-06 07:53:00
4:53 AM,61.0,55.9,83,29.89,8.0,Calm,Calm,-,N/A,,Clear,0,2012-10-06 08:53:00
5:53 AM,62.1,55.9,80,29.88,9.0,Calm,Calm,-,N/A,,Clear,0,2012-10-06 09:53:00
6:53 AM,59.0,55.0,87,29.87,5.0,Calm,Calm,-,N/A,,Clear,0,2012-10-06 10:53:00
7:53 AM,59.0,55.9,90,29.87,4.0,Calm,Calm,-,N/A,,Clear,0,2012-10-06 11:53:00
8:53 AM,62.1,57.0,84,29.86,5.0,Variable,3.5,-,N/A,,Haze,0,2012-10-06 12:53:00
9:53 AM,66.0,57.9,75,29.85,8.0,Variable,3.5,-,N/A,,Clear,0,2012-10-06 13:53:00
10:53 AM,71.1,59.0,66,29.83,10.0,Variable,5.8,-,N/A,,Clear,0,2012-10-06 14:53:00
11:53 AM,73.9,59.0,59,29.82,10.0,WSW,8.1,-,N/A,,Partly Cloudy,240,2012-10-06 15:53:00
12:53 PM,75.0,59.0,57,29.80,10.0,SW,6.9,-,N/A,,Mostly Cloudy,230,2012-10-06 16:53:00
1:53 PM,73.9,57.0,55,29.79,10.0,Variable,6.9,-,N/A,,Overcast,0,2012-10-06 17:53:00
2:53 PM,72.0,55.9,57,29.80,10.0,WNW,10.4,20.7,N/A,,Overcast,290,2012-10-06 18:53:00
3:53 PM,66.9,55.9,68,29.83,10.0,NW,15.0,23.0,N/A,,Overcast,320,2012-10-06 19:53:00
4:06 PM,64.4,53.6,68,29.83,10.0,WNW,16.1,24.2,N/A,,Overcast,300,2012-10-06 20:06:00
4:53 PM,63.0,51.1,65,29.88,10.0,NW,10.4,16.1,N/A,,Overcast,320,2012-10-06 20:53:00
5:08 PM,62.6,51.8,68,29.87,10.0,NNW,10.4,-,N/A,,Overcast,330,2012-10-06 21:08:00
5:40 PM,62.6,48.2,59,29.89,10.0,NW,9.2,16.1,N/A,,Mostly Cloudy,320,2012-10-06 21:40:00
5:53 PM,60.1,46.9,62,29.91,10.0,NW,11.5,17.3,N/A,,Scattered Clouds,320,2012-10-06 21:53:00
6:53 PM,57.0,46.9,69,29.93,10.0,Calm,Calm,-,N/A,,Clear,0,2012-10-06 22:53:00
7:53 PM,55.0,46.0,72,29.96,10.0,Calm,Calm,-,N/A,,Clear,0,2012-10-06 23:53:00
8:53 PM,54.0,46.0,75,29.98,10.0,WNW,4.6,-,N/A,,Clear,300,2012-10-07 00:53:00
9:53 PM,52.0,45.0,77,30.00,10.0,Calm,Calm,-,N/A,,Clear,0,2012-10-07 01:53:00
10:53 PM,51.1,45.0,80,30.02,10.0,Calm,Calm,-,N/A,,Clear,0,2012-10-07 02:53:00
11:53 PM,51.1,43.0,74,30.02,10.0,Calm,Calm,-,N/A,,Clear,0,2012-10-07 03:53:00